Location: Shepherdstown, WV
(39.4326°N, 77.8042°W)
Time: 05:15:50
(UTC-04:00)

Vanguard 3 - Pass Details

Date: 06 August 2021
Orbit: 510 x 3260 km, 33.3° (Epoch: 21 September)

Event Time Altitude Azimuth Distance (km) Brightness Sun altitude
Rises 18:27:58 0° 252° (WSW) 4,855 12.3 19.7°
Reaches altitude 10° 18:30:40 10° 249° (WSW) 4,167 12.1 19.2°
Maximum altitude 18:42:48 68° 170° (S) 2,742 10.0 16.9°
Drops below altitude 10° 19:01:45 10° 93° (E) 6,170 11.1 13.2°
Sets 19:06:45 0° 92° (E) 7,227 11.3 12.3°
